Stations météo

réclame
Mon MeteoGroup
Antwerpen, Belgique (6450): Température de l'air & dewpoint: 10.11.2018 00:00:00 - 16.11.2018 00:00:00 (CET)Antwerpen, Belgique (6450): Vitesse du vent & gusts: 10.11.2018 00:00:00 - 16.11.2018 00:00:00 (CET)Antwerpen, Belgique (6450): Direction du vent: 10.11.2018 00:00:00 - 16.11.2018 00:00:00 (CET)Antwerpen, Belgique (6450): reduced air pressure: 10.11.2018 00:00:00 - 16.11.2018 00:00:00 (CET)Antwerpen, Belgique (6450): visibility: 10.11.2018 00:00:00 - 16.11.2018 00:00:00 (CET)
Date & Time tt [°C] td [°C] ff [km/h] ff [knt] fx [km/h] fx [knt] dd ppp [hPa] vv [km]
16.11.2018 00:00:00 5,7 5,7 5 3 7 4 S 1025,1 0,1
15.11.2018 23:00:00 3,7 -0,8 2 1 11 6 - 1025,1 3,2
15.11.2018 22:00:00 4,3 -0,4 7 4 - - SE 1024,7 6
15.11.2018 21:00:00 5,7 0,6 4 2 11 6 ESE 1024,5 7
15.11.2018 20:00:00 6,6 1,5 9 5 11 6 ESE 1024,3 10
15.11.2018 19:00:00 7,8 2,3 7 4 - - E 1023,8 28
15.11.2018 18:00:00 8,6 2,1 9 5 11 6 E 1023,6 10
15.11.2018 17:00:00 10,5 3,7 8 4 11 6 E 1023,5 10
15.11.2018 16:00:00 12,1 6,0 8 4 - - ESE 1023,6 10
15.11.2018 15:00:00 13,2 6,5 13 7 18 10 ESE 1023,7 10
15.11.2018 14:00:00 13,0 6,4 11 6 18 10 ESE 1024,0 10
15.11.2018 13:00:00 11,7 5,9 13 7 - - SE 1024,2 10
15.11.2018 12:00:00 10,5 5,2 9 5 11 6 ESE 1024,6 10
15.11.2018 11:00:00 8,8 4,6 9 5 11 6 ESE 1025,0 10
15.11.2018 10:00:00 6,6 2,1 5 3 - - ESE 1025,0 10
15.11.2018 09:00:00 3,7 -1,8 8 4 11 6 ESE 1024,8 6
15.11.2018 08:00:00 3,3 3,3 8 4 11 6 SE 1024,7 6
15.11.2018 07:00:00 2,6 -1,1 5 3 - - ESE 1024,6 7
15.11.2018 06:00:00 2,2 -3,5 8 4 11 6 ESE 1024,6 7
15.11.2018 05:00:00 3,0 -1,9 7 4 11 6 ESE 1024,5 11
15.11.2018 04:00:00 2,8 2,8 8 4 - - SE 1024,5 9
15.11.2018 03:00:00 3,3 1,2 8 4 11 6 ESE 1024,7 7
15.11.2018 02:00:00 3,4 -0,9 8 4 7 4 ESE 1024,7 4,2
15.11.2018 01:00:00 4,2 -0,5 5 3 - - ESE 1024,9 1,8
15.11.2018 00:00:00 2,8 -0,7 5 3 7 4 ESE 1025,0 0,2
14.11.2018 23:00:00 5,3 0,0 4 2 7 4 E 1025,1 8
14.11.2018 22:00:00 5,3 -0,4 5 3 - - E 1024,9 8
14.11.2018 21:00:00 4,6 -1,1 8 4 11 6 SE 1025,1 8
14.11.2018 20:00:00 5,6 -0,2 8 4 11 6 ESE 1025,5 10
14.11.2018 19:00:00 6,3 1,0 9 5 - - SE 1025,7 10
14.11.2018 18:00:00 7,7 1,4 9 5 11 6 ESE 1025,7 10
14.11.2018 17:00:00 8,4 2,4 9 5 14 8 SE 1025,9 10
14.11.2018 16:00:00 9,9 3,9 8 4 - - SE 1026,3 10
14.11.2018 15:00:00 13,0 4,8 11 6 22 12 S 1026,3 10
14.11.2018 14:00:00 13,2 5,1 11 6 22 12 SSE 1026,9 10
14.11.2018 13:00:00 13,2 7,8 15 8 - - S 1027,1 10
14.11.2018 12:00:00 12,3 7,1 11 6 14 8 S 1027,6 10
14.11.2018 11:00:00 10,4 9,5 9 5 18 10 S 1028,2 10
14.11.2018 10:00:00 8,2 7,3 11 6 - - S 1027,9 10
14.11.2018 09:00:00 4,5 4,1 5 3 11 6 S 1028,1 8
14.11.2018 08:00:00 4,4 4,2 0 0 7 4 N 1027,9 6
14.11.2018 07:00:00 6,3 5,7 8 4 - - S 1027,6 9
14.11.2018 06:00:00 6,4 - 11 6 14 8 S - 9
14.11.2018 05:00:00 7,0 6,0 9 5 - - S - 10
14.11.2018 04:00:00 8,0 - 11 6 - - S - 10
14.11.2018 03:00:00 8,3 - 11 6 14 8 S - 15
14.11.2018 02:00:00 8,7 - 9 5 14 8 S - 10
14.11.2018 01:00:00 9,2 - 11 6 - - SSW - 10
14.11.2018 00:00:00 10,0 - 9 5 14 8 SSW - 10
13.11.2018 23:00:00 10,6 - 11 6 18 10 SSW - 10
13.11.2018 22:00:00 10,5 - 13 7 - - SSW - 10
13.11.2018 21:00:00 10,0 - 11 6 14 8 SSW - 10
13.11.2018 20:00:00 10,4 7,6 9 5 22 12 SSW 1028,0 10
13.11.2018 19:00:00 10,9 8,1 14 8 - - SW 1027,4 30
13.11.2018 18:00:00 11,2 7,6 9 5 25 14 SSW 1027,0 10
13.11.2018 17:00:00 12,2 7,4 16 9 32 18 SW 1026,5 10
13.11.2018 16:00:00 12,9 7,4 16 9 - - WSW 1025,6 10
13.11.2018 15:00:00 13,2 7,1 21 11 40 21 WSW 1024,9 10
13.11.2018 14:00:00 13,1 7,3 26 14 40 21 WSW 1024,5 10
13.11.2018 13:00:00 12,7 7,0 18 10 - - SW 1023,8 10
13.11.2018 12:00:00 12,1 8,2 26 14 43 23 WSW 1023,4 10
13.11.2018 11:00:00 10,9 8,5 21 11 36 19 SW 1022,8 10
13.11.2018 10:00:00 9,8 8,5 15 8 - - WSW 1022,1 10
13.11.2018 09:00:00 10,8 8,4 18 10 36 19 SW 1021,2 10
13.11.2018 08:00:00 10,4 8,2 21 11 32 18 SW 1020,6 10
13.11.2018 07:00:00 10,2 8,0 18 10 - - SSW 1019,9 10
13.11.2018 06:00:00 10,5 5,5 18 10 29 16 SW 1019,4 10
13.11.2018 05:00:00 10,3 2,6 16 9 25 14 SSW 1018,9 10
13.11.2018 04:00:00 10,2 10,2 15 8 - - SSW 1018,7 10
13.11.2018 03:00:00 9,8 6,0 13 7 18 10 S 1018,8 10
13.11.2018 02:00:00 9,6 5,0 11 6 18 10 S 1018,5 10
13.11.2018 01:00:00 9,4 4,3 11 6 - - S 1018,2 10
13.11.2018 00:00:00 9,4 3,5 9 5 14 8 S 1018,0 10
12.11.2018 23:00:00 9,3 7,9 11 6 14 8 S 1017,9 10
12.11.2018 22:00:00 9,7 8,0 9 5 - - S 1017,7 10
12.11.2018 21:00:00 9,8 7,7 13 7 18 10 S 1017,8 8
12.11.2018 20:00:00 9,7 8,9 11 6 18 10 S 1017,3 10
12.11.2018 19:00:00 9,9 8,8 9 5 - - SSW 1017,0 10
12.11.2018 18:00:00 10,2 9,1 9 5 14 8 S 1015,8 10
12.11.2018 17:00:00 11,0 9,0 9 5 - - SSW - 10
12.11.2018 16:00:00 11,0 8,9 11 6 - - SW 1015,0 10
12.11.2018 15:00:00 11,1 9,5 9 5 14 8 SW 1014,3 10
12.11.2018 14:00:00 11,0 10,2 8 4 14 8 SSW 1013,6 10
12.11.2018 13:00:00 10,8 10,0 11 6 - - W 1013,6 8
12.11.2018 12:00:00 10,7 9,8 8 4 14 8 W 1013,1 8
12.11.2018 11:00:00 10,5 10,2 4 2 4 2 W 1012,6 2,8
12.11.2018 10:00:00 10,4 10,1 2 1 - - - 1012,2 2,8
12.11.2018 09:00:00 10,0 9,7 2 1 4 2 - 1012,1 2,6
12.11.2018 08:00:00 9,6 9,4 2 1 7 4 SE 1011,7 3,0
12.11.2018 07:00:00 10,2 10,2 4 2 - - S 1011,7 6
12.11.2018 06:00:00 9,8 5,1 5 3 7 4 SE 1011,3 5
12.11.2018 05:00:00 10,4 8,9 4 2 14 8 - 1011,4 10
12.11.2018 04:00:00 10,5 10,5 9 5 - - S 1011,7 10
12.11.2018 03:00:00 10,3 8,9 9 5 18 10 SSE 1011,5 10
12.11.2018 02:00:00 10,1 10,1 9 5 11 6 SSE 1011,3 10
12.11.2018 01:00:00 10,6 9,2 8 4 - - S 1011,4 10
12.11.2018 00:00:00 10,5 9,0 8 4 14 8 S 1011,1 10
11.11.2018 23:00:00 10,7 9,3 9 5 18 10 S 1010,7 10
11.11.2018 22:00:00 10,5 9,4 9 5 - - SSW 1010,3 10
11.11.2018 21:00:00 10,2 8,8 8 4 11 6 S 1009,4 10
11.11.2018 20:00:00 11,1 9,3 8 4 18 10 SSW 1008,6 10
11.11.2018 19:00:00 11,5 9,3 11 6 - - SW 1008,0 10
11.11.2018 18:00:00 11,5 9,4 13 7 25 14 S 1007,2 10
11.11.2018 17:00:00 12,0 9,0 16 9 - - SSW - 10
11.11.2018 16:00:00 12,3 9,5 16 9 - - SSW 1006,3 10
11.11.2018 15:00:00 12,4 10,3 16 9 32 18 SSW 1005,6 10
11.11.2018 14:00:00 12,8 9,8 22 12 32 18 SSW 1005,7 10
11.11.2018 13:00:00 13,4 8,9 22 12 - - SSW 1005,0 10
11.11.2018 12:00:00 13,3 8,9 22 12 43 23 SSW 1005,0 10
11.11.2018 11:00:00 13,1 8,5 22 12 43 23 SSW 1003,7 10
11.11.2018 10:00:00 12,6 8,5 24 13 - - SSW 1003,5 10
11.11.2018 09:00:00 12,2 8,6 22 12 36 19 SSW 1002,8 10
11.11.2018 08:00:00 12,0 8,6 18 10 40 21 S 1002,2 10
11.11.2018 07:00:00 12,0 8,8 25 14 - - S 1001,5 30
11.11.2018 06:00:00 12,1 9,9 22 12 36 19 S 1001,3 10
11.11.2018 05:00:00 12,0 - 18 10 - - S - 10
11.11.2018 04:00:00 12,2 - 16 9 - - S - 10
11.11.2018 03:00:00 12,4 9,0 16 9 36 19 S 1001,5 10
11.11.2018 02:00:00 12,4 9,4 16 9 25 14 S 1001,5 10
11.11.2018 01:00:00 11,3 11,3 15 8 - - SSE 1001,4 10
11.11.2018 00:00:00 10,8 8,7 11 6 18 10 SSE 1001,7 10
10.11.2018 23:00:00 7,7 5,9 9 5 14 8 SSE 1001,8 10
10.11.2018 22:00:00 9,8 8,0 7 4 - - S 1001,8 30
10.11.2018 21:00:00 10,6 8,8 11 6 22 12 S 1001,6 10
10.11.2018 20:00:00 11,5 8,9 15 8 22 12 S 1001,5 10
10.11.2018 19:00:00 11,6 9,7 7 4 - - S 1001,1 30
10.11.2018 18:00:00 11,7 10,0 9 5 25 14 SSE 1000,8 10
10.11.2018 17:00:00 12,0 11,0 15 8 - - S - 10
10.11.2018 16:00:00 11,8 10,3 13 7 - - S 1000,4 10
10.11.2018 15:00:00 11,9 10,4 15 8 22 12 SSE 1000,6 10
10.11.2018 14:00:00 11,9 10,0 15 8 29 16 S 1001,0 9
10.11.2018 13:00:00 12,4 9,1 18 10 - - S 1001,3 10
10.11.2018 12:00:00 12,9 9,6 21 11 40 21 S 1001,7 10
10.11.2018 11:00:00 12,9 9,6 22 12 36 19 S 1001,6 10
10.11.2018 10:00:00 12,8 9,5 18 10 - - SSW 1001,5 10
10.11.2018 09:00:00 12,4 12,4 21 11 43 23 SSW 1001,0 10
10.11.2018 08:00:00 12,0 10,4 28 15 43 23 SSW 1000,5 10
10.11.2018 07:00:00 11,5 9,9 22 12 - - S 1000,0 10
10.11.2018 06:00:00 11,1 9,5 24 13 40 21 S 1000,0 3,3
10.11.2018 05:00:00 12,0 10,0 16 9 - - S - 10
10.11.2018 04:00:00 12,2 10,6 21 11 - - SSE 1000,7 10
10.11.2018 03:00:00 12,2 10,6 22 12 32 18 SSE 1001,6 10
10.11.2018 02:00:00 11,4 9,8 16 9 25 14 SSE 1002,6 10
10.11.2018 01:00:00 11,1 8,0 15 8 - - SSE 1003,8 10
10.11.2018 00:00:00 10,7 8,2 16 9 22 12 SSE 1004,7 10

tt = Température de l'air
td = dewpoint
ff = Vitesse du vent
fx = gusts
dd = Direction du vent
ppp = reduced air pressure
vv = visibility

stations d'obs. à proximité